HIMAWARI 4 (GMS 4)

导读 | 星芒AI

HIMAWARI 4(原称 GMS 4)是日本气象厅于1995年发射的地球静止轨道气象卫星,属于GMS/HIMAWARI系列的第四代。该卫星搭载了先进的可见光和红外线传感器,用于监测天气变化、台风路径及云层分布。其稳定运行提升了气象预报的准确性,并支持灾害预警。HIMAWARI 4在2006年退役,由HIMAWARI 5和后续的HIMAWARI 8等更先进卫星接替。

基本信息
目录编号:
20217
目录名称:
HIMAWARI 4 (GMS 4)
国际标识:
1989-070A
轨道中心:
EARTH
卫星名称:
HIMAWARI 4 (GMS 4)
卫星全名:
--
卫星状态:
在轨 (已飞行13203 天)
发射日期:
1989-09-05 UTC
国别 :
日本 (JP)
星等 :
--
轨道信息
数据来源 国际轨道数据 AOE轨道数据
星历时间 2025-10-28T03:59:17+0800
1天前
查看轨道信息
2025-10-24T23:00:00+0800
4天前
查看轨道信息
半长轴 42985.925km 42986.337km
偏心率 0.0045517 0.004579
轨道倾角 14.909° 14.911°
近地点辐角 144.390° 144.377°
升交点赤经 348.468° 348.488°
平近点角 218.831° 173.884°
近地点 36412.13km 36411.367km
远地点 36803.45km 36805.037km
周期 1478.254分钟 1478.276分钟
每日圈数 0.974122 0.974108
详细信息
使用方式:
暂无
2D轨道图
3D轨道图
轨道高度分析图
轨道倾角分析图
轨道综合分析图
查看轨道综合分析图